RLTS3 YMES-YMES

Flight info

Callsign RLTS3
Flight time 0h 35m
Altitude 5000
Route ESL DCT WSL DCT ESL
Aircraft PC21/L-SDFGTUVY/C

Departure

Time 2026-04-24 12:04
Airport RAAF Base East Sale (YMES)

Arrival

Time 2026-04-24 12:40
Airport RAAF Base East Sale (YMES)
Time Latitude Longitude Altitude Speed Heading
2026-04-24 11:43 -38.09905 147.13631 26 ft 0 kts 188°
2026-04-24 11:53 -38.09906 147.13630 26 ft 3 kts 188°
2026-04-24 11:53 -38.09924 147.13604 26 ft 6 kts 280°
2026-04-24 11:53 -38.09911 147.13571 26 ft 4 kts 353°
2026-04-24 11:53 -38.09885 147.13574 26 ft 5 kts 11°
2026-04-24 11:54 -38.09867 147.13568 27 ft 2 kts 280°
2026-04-24 11:54 -38.09859 147.13475 27 ft 16 kts 279°
2026-04-24 11:54 -38.09845 147.13370 24 ft 9 kts 297°
2026-04-24 11:54 -38.09808 147.13365 23 ft 3 kts
2026-04-24 11:55 -38.09806 147.13365 23 ft 0 kts 10°
2026-04-24 11:55 -38.09765 147.13363 26 ft 8 kts 310°
2026-04-24 11:55 -38.09752 147.13271 23 ft 13 kts 278°
2026-04-24 11:56 -38.09736 147.13147 20 ft 15 kts 280°
2026-04-24 11:56 -38.09719 147.13001 20 ft 18 kts 277°
2026-04-24 11:56 -38.09698 147.12859 22 ft 11 kts 296°
2026-04-24 11:56 -38.09683 147.12836 23 ft 0 kts 325°
2026-04-24 11:57 -38.09606 147.12832 23 ft 16 kts 11°
2026-04-24 11:57 -38.09569 147.12906 24 ft 13 kts 97°
2026-04-24 11:58 -38.09578 147.12988 23 ft 2 kts 97°
2026-04-24 11:59 -38.09578 147.12989 23 ft 0 kts 96°
2026-04-24 12:03 -38.09602 147.13206 24 ft 66 kts 99°
2026-04-24 12:04 -38.09713 147.14077 47 ft 123 kts 99°
2026-04-24 12:04 -38.09876 147.15343 292 ft 168 kts 99°
2026-04-24 12:04 -38.10062 147.16901 855 ft 187 kts 96°
2026-04-24 12:04 -38.10466 147.18464 1496 ft 194 kts 124°
2026-04-24 12:05 -38.11648 147.19366 2129 ft 214 kts 169°
2026-04-24 12:05 -38.13094 147.18938 2583 ft 226 kts 217°
2026-04-24 12:05 -38.13963 147.17325 3082 ft 229 kts 256°
2026-04-24 12:05 -38.14231 147.15287 3505 ft 241 kts 264°
2026-04-24 12:06 -38.14456 147.13125 3843 ft 249 kts 263°
2026-04-24 12:06 -38.14720 147.10946 4239 ft 250 kts 263°
2026-04-24 12:06 -38.14983 147.08706 4402 ft 264 kts 263°
2026-04-24 12:06 -38.15264 147.06391 4528 ft 269 kts 263°
2026-04-24 12:07 -38.15531 147.03993 4639 ft 277 kts 264°
2026-04-24 12:07 -38.15751 147.01570 4708 ft 283 kts 265°
2026-04-24 12:07 -38.15943 146.99055 4697 ft 290 kts 266°
2026-04-24 12:07 -38.16095 146.96493 4704 ft 291 kts 267°
2026-04-24 12:08 -38.16224 146.93924 4713 ft 291 kts 268°
2026-04-24 12:08 -38.15825 146.91469 4847 ft 289 kts 306°
2026-04-24 12:08 -38.14092 146.90399 4649 ft 294 kts
2026-04-24 12:08 -38.12663 146.92164 3643 ft 322 kts 78°
2026-04-24 12:09 -38.12793 146.95081 2900 ft 320 kts 85°
2026-04-24 12:09 -38.11427 146.96505 3481 ft 285 kts 345°
2026-04-24 12:09 -38.10702 146.94360 2164 ft 325 kts 245°
2026-04-24 12:09 -38.12696 146.93406 1095 ft 338 kts 167°
2026-04-24 12:10 -38.14757 146.93500 2543 ft 278 kts 214°
2026-04-24 12:10 -38.15067 146.91412 2715 ft 273 kts 310°
2026-04-24 12:10 -38.13294 146.91085 1986 ft 293 kts 35°
2026-04-24 12:11 -38.12478 146.95879 2813 ft 69 kts 94°
2026-04-24 12:11 -38.12555 146.95153 3658 ft 50 kts 264°
2026-04-24 12:11 -38.12746 146.97183 659 ft 322 kts 114°
2026-04-24 12:11 -38.14578 146.97971 1113 ft 292 kts 191°
2026-04-24 12:12 -38.16142 146.98826 1641 ft 269 kts 101°
2026-04-24 12:12 -38.15070 147.00348 1299 ft 279 kts 352°
2026-04-24 12:12 -38.13636 146.98651 507 ft 307 kts 302°
2026-04-24 12:12 -38.12960 146.97264 3475 ft 64 kts 116°
2026-04-24 12:13 -38.13167 146.97748 1642 ft 183 kts 304°
2026-04-24 12:13 -38.12490 146.95425 638 ft 296 kts 253°
2026-04-24 12:13 -38.13959 146.93968 1451 ft 263 kts 210°
2026-04-24 12:13 -38.14483 146.92112 2169 ft 248 kts 305°
2026-04-24 12:14 -38.12946 146.91987 1629 ft 272 kts 46°
2026-04-24 12:14 -38.12434 146.94421 747 ft 302 kts 84°
2026-04-24 12:14 -38.12427 146.96411 3381 ft 182 kts 120°
2026-04-24 12:14 -38.12749 146.98175 1036 ft 297 kts 82°
2026-04-24 12:15 -38.11859 147.00444 1063 ft 293 kts 18°
2026-04-24 12:15 -38.10439 146.99134 999 ft 296 kts 272°
2026-04-24 12:15 -38.11143 146.96715 653 ft 306 kts 243°
2026-04-24 12:15 -38.11943 146.94693 2619 ft 59 kts 256°
2026-04-24 12:16 -38.11745 146.95235 2488 ft 57 kts 249°
2026-04-24 12:16 -38.12531 146.93108 519 ft 301 kts 245°
2026-04-24 12:16 -38.13183 146.90736 1484 ft 268 kts 277°
2026-04-24 12:16 -38.11917 146.89650 1903 ft 255 kts 21°
2026-04-24 12:17 -38.11223 146.91693 1132 ft 293 kts 96°
2026-04-24 12:17 -38.11560 146.94234 1450 ft 212 kts 101°
2026-04-24 12:17 -38.11611 146.93941 3923 ft 109 kts 274°
2026-04-24 12:17 -38.11887 146.95390 476 ft 314 kts 101°
2026-04-24 12:18 -38.12573 146.97827 1176 ft 286 kts 144°
2026-04-24 12:18 -38.14089 146.97016 1254 ft 285 kts 258°
2026-04-24 12:18 -38.13973 146.94508 1060 ft 285 kts 277°
2026-04-24 12:18 -38.13792 146.92022 1041 ft 280 kts 276°
2026-04-24 12:19 -38.13577 146.89557 1136 ft 280 kts 277°
2026-04-24 12:19 -38.13390 146.87149 1393 ft 268 kts 277°
2026-04-24 12:19 -38.12715 146.85052 1919 ft 267 kts 324°
2026-04-24 12:19 -38.10966 146.85182 1963 ft 279 kts 45°
2026-04-24 12:20 -38.10695 146.87513 1669 ft 291 kts 101°
2026-04-24 12:20 -38.11602 146.89809 1464 ft 298 kts 135°
2026-04-24 12:20 -38.13465 146.90930 1452 ft 293 kts 161°
2026-04-24 12:20 -38.15161 146.92180 1877 ft 283 kts 136°
2026-04-24 12:21 -38.16298 146.94208 1860 ft 282 kts 103°
2026-04-24 12:21 -38.15624 146.96348 1437 ft 291 kts 27°
2026-04-24 12:21 -38.13577 146.96414 868 ft 306 kts 351°
2026-04-24 12:21 -38.11480 146.96447 719 ft 302 kts
2026-04-24 12:22 -38.09441 146.96838 574 ft 299 kts
2026-04-24 12:22 -38.07638 146.97209 2169 ft 89 kts 12°
2026-04-24 12:22 -38.08183 146.97146 3045 ft 35 kts 163°
2026-04-24 12:22 -38.06654 146.97727 681 ft 299 kts 41°
2026-04-24 12:23 -38.06872 146.99824 818 ft 288 kts 159°
2026-04-24 12:23 -38.08636 146.99040 696 ft 290 kts 232°
2026-04-24 12:23 -38.09000 146.96610 664 ft 291 kts 288°
2026-04-24 12:23 -38.07699 146.94800 1051 ft 269 kts 324°
2026-04-24 12:24 -38.06271 146.93531 2137 ft 240 kts 332°
2026-04-24 12:24 -38.04705 146.93622 2508 ft 250 kts 40°
2026-04-24 12:24 -38.04313 146.95789 2156 ft 285 kts 110°
2026-04-24 12:24 -38.05848 146.97347 1580 ft 307 kts 169°
2026-04-24 12:25 -38.08045 146.97120 686 ft 326 kts 189°
2026-04-24 12:25 -38.10230 146.96594 826 ft 305 kts 199°
2026-04-24 12:25 -38.11445 146.94683 1528 ft 276 kts 251°
2026-04-24 12:25 -38.12267 146.92562 2132 ft 267 kts 220°
2026-04-24 12:26 -38.14023 146.92512 2072 ft 280 kts 140°
2026-04-24 12:26 -38.14370 146.94787 1376 ft 297 kts 60°
2026-04-24 12:26 -38.12616 146.96063 779 ft 308 kts 10°
2026-04-24 12:26 -38.10514 146.96521 602 ft 306 kts 10°
2026-04-24 12:27 -38.08435 146.96981 508 ft 298 kts
2026-04-24 12:27 -38.07654 146.97163 4078 ft 101 kts 187°
2026-04-24 12:27 -38.07791 146.97203 1079 ft 259 kts 12°
2026-04-24 12:27 -38.05974 146.96527 626 ft 296 kts 292°
2026-04-24 12:28 -38.06861 146.94626 560 ft 292 kts 186°
2026-04-24 12:28 -38.08438 146.95916 619 ft 285 kts 113°
2026-04-24 12:28 -38.08092 146.98209 712 ft 274 kts 49°
2026-04-24 12:28 -38.07252 147.00059 1758 ft 253 kts 100°
2026-04-24 12:29 -38.08746 147.00848 1225 ft 291 kts 214°
2026-04-24 12:29 -38.09210 146.98448 510 ft 309 kts 281°
2026-04-24 12:29 -38.08848 146.95827 822 ft 181 kts 278°
2026-04-24 12:29 -38.08969 146.96406 2879 ft 74 kts 91°
2026-04-24 12:30 -38.08485 146.94604 652 ft 295 kts 323°
2026-04-24 12:30 -38.06896 146.95387 955 ft 279 kts 69°
2026-04-24 12:30 -38.06513 146.97788 955 ft 277 kts 79°
2026-04-24 12:30 -38.06190 147.00206 1011 ft 279 kts 86°
2026-04-24 12:31 -38.07240 147.01998 1144 ft 287 kts 171°
2026-04-24 12:31 -38.08950 147.00984 972 ft 289 kts 239°
2026-04-24 12:31 -38.09129 146.98478 633 ft 296 kts 281°
2026-04-24 12:31 -38.08813 146.95962 687 ft 278 kts 279°
2026-04-24 12:32 -38.08519 146.93569 782 ft 275 kts 278°
2026-04-24 12:32 -38.08198 146.91229 1220 ft 268 kts 280°
2026-04-24 12:32 -38.07885 146.88960 1938 ft 255 kts 287°
2026-04-24 12:32 -38.06654 146.87642 2198 ft 255 kts
2026-04-24 12:33 -38.05638 146.89346 1299 ft 295 kts 97°
2026-04-24 12:33 -38.06531 146.91738 796 ft 306 kts 119°
2026-04-24 12:33 -38.07545 146.93889 1984 ft 138 kts 124°
2026-04-24 12:33 -38.07403 146.93296 3547 ft 87 kts 287°
2026-04-24 12:34 -38.08181 146.94947 423 ft 323 kts 115°
2026-04-24 12:34 -38.08109 146.97552 757 ft 297 kts 58°
2026-04-24 12:34 -38.06781 146.99361 1289 ft 274 kts 60°
2026-04-24 12:34 -38.07252 147.01408 1707 ft 271 kts 151°
2026-04-24 12:35 -38.09017 147.00855 1143 ft 302 kts 238°
2026-04-24 12:35 -38.09150 146.98207 443 ft 312 kts 279°
2026-04-24 12:35 -38.08818 146.95552 466 ft 302 kts 282°
2026-04-24 12:35 -38.08454 146.92994 966 ft 277 kts 279°
2026-04-24 12:36 -38.07782 146.90969 2014 ft 248 kts 335°
2026-04-24 12:36 -38.06596 146.92089 1489 ft 276 kts 89°
2026-04-24 12:36 -38.07223 146.94554 629 ft 307 kts 111°
2026-04-24 12:36 -38.07921 146.96543 2875 ft 163 kts 133°
2026-04-24 12:37 -38.08899 146.97649 1726 ft 250 kts 113°
2026-04-24 12:37 -38.09570 147.00213 741 ft 306 kts 85°
2026-04-24 12:37 -38.08278 147.01836 1452 ft 274 kts
2026-04-24 12:37 -38.06389 147.01993 1902 ft 266 kts
2026-04-24 12:38 -38.04638 147.01552 2189 ft 271 kts 315°
2026-04-24 12:38 -38.04677 146.99255 1336 ft 307 kts 231°
2026-04-24 12:38 -38.06578 146.97971 588 ft 321 kts 194°
2026-04-24 12:39 -38.09420 146.97292 1339 ft 272 kts 176°
2026-04-24 12:39 -38.11330 146.97329 1643 ft 265 kts 192°
2026-04-24 12:39 -38.13012 146.97335 1561 ft 255 kts 160°
2026-04-24 12:40 -38.14284 146.98099 17 ft 0 kts 145°
2026-04-24 12:40 -38.14303 146.98115 1529 ft 28 kts 139°
2026-04-24 12:40 -38.14770 146.99176 442 ft 217 kts 52°
2026-04-24 12:40 -38.13246 146.99600 776 ft 240 kts 344°
2026-04-24 12:41 -38.11947 146.98313 798 ft 246 kts 310°
2026-04-24 12:41 -38.10942 146.96552 777 ft 248 kts 297°
2026-04-24 12:41 -38.10955 146.94517 1129 ft 241 kts 239°
2026-04-24 12:41 -38.12385 146.93549 1079 ft 247 kts 183°
2026-04-24 12:42 -38.14001 146.92813 1213 ft 258 kts 226°
2026-04-24 12:42 -38.14424 146.90691 1381 ft 263 kts 288°
2026-04-24 12:42 -38.13114 146.89199 1417 ft 268 kts 349°
2026-04-24 12:42 -38.11346 146.89790 1467 ft 275 kts 39°
2026-04-24 12:43 -38.10291 146.91814 1430 ft 279 kts 64°
2026-04-24 12:43 -38.09448 146.94043 1387 ft 280 kts 62°
2026-04-24 12:43 -38.08162 146.95773 1400 ft 277 kts 27°
2026-04-24 12:43 -38.06288 146.96101 1375 ft 278 kts 349°
2026-04-24 12:44 -38.04430 146.95458 1434 ft 276 kts 353°
2026-04-24 12:44 -38.02680 146.96162 1604 ft 277 kts 49°
2026-04-24 12:44 -38.02519 146.98491 1650 ft 283 kts 115°
2026-04-24 12:44 -38.04139 146.99690 1422 ft 292 kts 188°
2026-04-24 12:45 -38.05972 146.98532 946 ft 304 kts 210°
2026-04-24 12:45 -38.07951 146.97564 637 ft 305 kts 195°
2026-04-24 12:45 -38.09218 146.96144 727 ft 281 kts 277°
2026-04-24 12:45 -38.09033 146.94436 3104 ft 36 kts 97°
2026-04-24 12:46 -38.09155 146.95420 1830 ft 193 kts 95°
2026-04-24 12:46 -38.09083 146.97849 568 ft 295 kts 44°
2026-04-24 12:46 -38.07653 146.97127 314 ft 289 kts 261°
2026-04-24 12:46 -38.09084 146.96274 660 ft 271 kts 131°
2026-04-24 12:47 -38.09305 146.98623 544 ft 277 kts 90°
2026-04-24 12:47 -38.09292 147.01060 776 ft 267 kts 86°
2026-04-24 12:47 -38.08174 147.02580 1264 ft 260 kts
2026-04-24 12:47 -38.06794 147.01380 1582 ft 262 kts 287°
2026-04-24 12:48 -38.06647 146.99068 1505 ft 273 kts 272°
2026-04-24 12:48 -38.06629 146.96688 1641 ft 270 kts 271°
2026-04-24 12:48 -38.06635 146.94260 1615 ft 281 kts 273°
2026-04-24 12:48 -38.06042 146.91920 1471 ft 285 kts 309°
2026-04-24 12:49 -38.04321 146.90843 1198 ft 289 kts
2026-04-24 12:49 -38.02825 146.92341 930 ft 294 kts 72°
2026-04-24 12:49 -38.03177 146.94816 812 ft 294 kts 120°
2026-04-24 12:49 -38.04533 146.96723 778 ft 292 kts 146°
2026-04-24 12:50 -38.06436 146.97405 632 ft 295 kts 181°
2026-04-24 12:50 -38.08479 146.97139 488 ft 295 kts 186°
2026-04-24 12:50 -38.08836 146.95107 362 ft 282 kts 282°
2026-04-24 12:50 -38.08647 146.93963 3562 ft 66 kts 106°
2026-04-24 12:51 -38.08868 146.94978 1871 ft 184 kts 100°
2026-04-24 12:51 -38.08930 146.97364 595 ft 294 kts 43°
2026-04-24 12:51 -38.07472 146.96483 511 ft 286 kts 270°
2026-04-24 12:51 -38.08756 146.95211 577 ft 278 kts 151°
2026-04-24 12:52 -38.09211 146.97403 636 ft 268 kts 93°
2026-04-24 12:52 -38.10294 146.99055 666 ft 277 kts 182°
2026-04-24 12:52 -38.12009 146.98020 657 ft 280 kts 225°
2026-04-24 12:52 -38.12935 146.95889 756 ft 278 kts 253°
2026-04-24 12:53 -38.13379 146.93546 1215 ft 269 kts 269°
2026-04-24 12:53 -38.12859 146.91341 1616 ft 263 kts 302°
2026-04-24 12:53 -38.11592 146.89628 1501 ft 277 kts 328°
2026-04-24 12:53 -38.09751 146.89286 1456 ft 276 kts 23°
2026-04-24 12:54 -38.08945 146.91255 1331 ft 285 kts 104°
2026-04-24 12:54 -38.10116 146.93310 1096 ft 293 kts 132°
2026-04-24 12:54 -38.11502 146.95209 1056 ft 291 kts 132°
2026-04-24 12:54 -38.12846 146.97117 1073 ft 288 kts 130°
2026-04-24 12:55 -38.14146 146.99048 1026 ft 288 kts 129°
2026-04-24 12:55 -38.15617 147.00714 1071 ft 286 kts 164°
2026-04-24 12:55 -38.17202 146.99674 1203 ft 279 kts 251°
2026-04-24 12:55 -38.17419 146.97341 2160 ft 179 kts 270°
2026-04-24 12:56 -38.17706 146.96517 4348 ft 127 kts 260°
2026-04-24 12:56 -38.16713 146.96827 1439 ft 288 kts 30°
2026-04-24 12:56 -38.14990 146.98111 1385 ft 286 kts 30°
2026-04-24 12:56 -38.13264 146.99387 1352 ft 287 kts 27°
2026-04-24 12:57 -38.11373 146.99589 1497 ft 282 kts 329°
2026-04-24 12:57 -38.10925 146.97418 1599 ft 287 kts 240°
2026-04-24 12:57 -38.12651 146.96338 1091 ft 294 kts 174°
2026-04-24 12:57 -38.14263 146.97588 1315 ft 268 kts 121°
2026-04-24 12:58 -38.14363 146.99791 1563 ft 265 kts 54°
2026-04-24 12:58 -38.12791 146.99913 1448 ft 276 kts 307°
2026-04-24 12:58 -38.13134 146.97717 1358 ft 285 kts 218°
2026-04-24 12:58 -38.14828 146.96880 2646 ft 234 kts 218°
2026-04-24 12:59 -38.14833 146.95129 2056 ft 264 kts 339°
2026-04-24 12:59 -38.12909 146.95474 1165 ft 298 kts 15°
2026-04-24 12:59 -38.10858 146.96115 605 ft 308 kts 12°
2026-04-24 12:59 -38.08770 146.96655 437 ft 303 kts 11°
2026-04-24 13:00 -38.07835 146.96833 4126 ft 37 kts 283°
2026-04-24 13:00 -38.07780 146.96661 2543 ft 167 kts 88°
2026-04-24 13:00 -38.07983 146.99064 1041 ft 288 kts 116°
2026-04-24 13:00 -38.09410 147.00467 1639 ft 280 kts 175°
2026-04-24 13:01 -38.11400 146.99764 777 ft 310 kts 206°
2026-04-24 13:01 -38.13319 146.98629 765 ft 294 kts 191°
2026-04-24 13:01 -38.14994 146.99515 743 ft 275 kts 114°
2026-04-24 13:01 -38.14446 147.01538 795 ft 262 kts 28°
2026-04-24 13:02 -38.12681 147.01773 845 ft 256 kts 357°
2026-04-24 13:02 -38.10888 147.01669 782 ft 260 kts 358°
2026-04-24 13:02 -38.09093 147.01826 764 ft 265 kts 12°
2026-04-24 13:02 -38.07537 147.02982 700 ft 272 kts 61°
2026-04-24 13:03 -38.08006 147.05035 718 ft 275 kts 160°
2026-04-24 13:03 -38.09218 147.03698 626 ft 282 kts 272°
2026-04-24 13:03 -38.09154 147.01187 515 ft 288 kts 261°
2026-04-24 13:03 -38.09333 146.98641 309 ft 294 kts 279°
2026-04-24 13:04 -38.08791 146.96207 355 ft 282 kts 287°
2026-04-24 13:04 -38.08738 146.94021 1362 ft 243 kts 197°
2026-04-24 13:04 -38.09375 146.95575 1627 ft 265 kts 95°
2026-04-24 13:04 -38.10343 146.97354 1495 ft 291 kts 207°
2026-04-24 13:05 -38.11828 146.95647 1662 ft 284 kts 233°
2026-04-24 13:05 -38.11784 146.93466 1781 ft 249 kts 275°
2026-04-24 13:05 -38.12492 146.91602 2075 ft 258 kts 204°
2026-04-24 13:05 -38.14085 146.92260 2031 ft 268 kts 114°
2026-04-24 13:06 -38.13615 146.94311 2046 ft 268 kts 36°
2026-04-24 13:06 -38.11894 146.95308 2103 ft 274 kts 21°
2026-04-24 13:06 -38.10120 146.96183 2223 ft 274 kts 22°
2026-04-24 13:06 -38.08415 146.97260 2308 ft 280 kts 32°
2026-04-24 13:07 -38.07001 146.98944 2289 ft 281 kts 53°
2026-04-24 13:07 -38.06138 147.01168 2201 ft 284 kts 72°
2026-04-24 13:07 -38.05850 147.03643 2138 ft 284 kts 87°
2026-04-24 13:07 -38.05675 147.06113 2272 ft 279 kts 71°
2026-04-24 13:08 -38.04508 147.07963 2448 ft 276 kts 26°
2026-04-24 13:08 -38.02649 147.07852 2186 ft 284 kts 327°
2026-04-24 13:08 -38.01770 147.05710 2028 ft 291 kts 268°
2026-04-24 13:09 -38.04876 147.03512 1441 ft 304 kts 161°
2026-04-24 13:09 -38.06687 147.04816 1261 ft 300 kts 143°
2026-04-24 13:09 -38.08220 147.06604 1043 ft 299 kts 127°
2026-04-24 13:09 -38.09089 147.08971 660 ft 301 kts 102°
2026-04-24 13:10 -38.09394 147.11606 238 ft 302 kts 98°
2026-04-24 13:10 -38.09727 147.14191 218 ft 289 kts 99°
2026-04-24 13:10 -38.09118 147.15512 1152 ft 210 kts 316°
2026-04-24 13:10 -38.08732 147.13878 924 ft 178 kts 281°
2026-04-24 13:11 -38.08569 147.12504 1033 ft 146 kts 282°
2026-04-24 13:11 -38.08401 147.11243 942 ft 149 kts 269°
2026-04-24 13:11 -38.09168 147.10878 685 ft 154 kts 131°
2026-04-24 13:11 -38.09475 147.12112 209 ft 148 kts 98°
2026-04-24 13:12 -38.09621 147.13323 24 ft 119 kts 99°
2026-04-24 13:12 -38.09726 147.14148 27 ft 54 kts 97°
2026-04-24 13:12 -38.09763 147.14508 21 ft 35 kts 98°
2026-04-24 13:12 -38.09792 147.14708 19 ft 16 kts 121°
2026-04-24 13:13 -38.09869 147.14695 18 ft 14 kts 231°
2026-04-24 13:13 -38.09914 147.14609 20 ft 11 kts 254°
2026-04-24 13:13 -38.09907 147.14520 24 ft 10 kts 280°
2026-04-24 13:13 -38.09893 147.14417 24 ft 14 kts 279°
2026-04-24 13:14 -38.09877 147.14272 23 ft 27 kts 278°
2026-04-24 13:14 -38.09859 147.14129 27 ft 12 kts 278°
2026-04-24 13:14 -38.09859 147.14044 29 ft 9 kts 217°
2026-04-24 13:14 -38.09922 147.14014 27 ft 9 kts 254°
2026-04-24 13:15 -38.09907 147.13881 28 ft 17 kts 279°
2026-04-24 13:15 -38.09890 147.13738 26 ft 13 kts 279°
2026-04-24 13:15 -38.09878 147.13644 26 ft 5 kts 271°
2026-04-24 13:15 -38.09898 147.13632 29 ft 2 kts 189°
2026-04-24 13:16 -38.09905 147.13631 27 ft 0 kts 189°